Wind_Speed
19 17 17 18 17 17 17 15 14 16 18 18 18 17 16 16 16 16 16 16 17 18 19 17 15 12 8 6 3 3 6 9 12 13 14 14 15 17 17 17 15 15 14 13
20 18 19 19 18 18 17 16 16 17 19 20 19 19 17 17 17 16 16 17 18 18 18 15 15 11 6 4 2 3 5 8 11 12 14 15 14 15 16 16 15 14 15 14
21 21 21 20 19 18 18 17 17 19 20 21 21 18 17 17 17 16 15 17 18 17 16 13 13 9 5 3 2 2 5 8 9 11 13 14 13 12 14 14 14 14 14 14
23 23 22 21 19 19 18 18 19 20 21 21 21 19 16 17 16 15 16 16 16 15 13 12 9 6 3 1 1 2 5 7 8 10 12 13 11 12 14 14 14 14 13 13
24 24 23 21 20 20 18 20 20 20 21 20 20 19 15 15 14 14 15 15 13 11 11 10 8 4 2 2 2 3 5 6 8 10 12 12 12 12 13 14 14 14 14 14
25 25 23 21 21 21 19 20 20 20 20 19 17 16 14 13 13 13 12 12 11 10 9 8 7 4 2 2 2 2 4 6 8 9 10 10 11 12 13 14 14 14 14 14
25 24 23 22 21 21 20 20 21 20 19 17 15 15 12 11 12 11 10 11 10 9 8 8 7 5 3 1 2 2 3 5 7 9 9 9 10 10 13 14 14 14 14 14
25 24 23 21 20 20 20 19 19 18 16 15 14 13 11 10 10 9 9 9 8 7 8 7 6 5 3 1 2 2 3 4 6 8 10 10 10 11 12 14 15 15 15 16
23 22 22 21 21 22 21 19 18 18 16 15 15 13 10 9 9 9 8 8 7 6 7 7 6 5 4 3 3 2 3 4 5 7 9 11 12 12 13 15 15 15 15 16
23 22 21 21 22 22 22 20 19 18 16 16 14 12 10 9 9 9 8 7 7 6 7 6 6 4 4 4 4 4 4 5 6 7 9 11 12 13 14 15 16 16 16 16
24 23 22 22 21 22 21 21 20 19 17 16 15 12 10 10 10 9 7 7 7 7 7 7 7 6 5 5 5 5 6 6 6 7 9 10 12 14 15 16 16 16 17 17
23 24 24 23 23 23 22 21 20 19 18 17 15 12 11 10 10 10 8 8 8 7 7 8 8 7 6 6 6 6 6 7 7 8 9 11 12 13 14 16 16 16 17 17
24 24 25 25 26 25 24 23 22 20 20 18 16 13 12 11 11 10 9 9 8 7 7 8 8 7 7 7 6 6 7 7 8 8 9 11 12 12 14 16 17 18 18 18
25 25 25 25 24 25 24 24 23 22 21 20 18 15 13 13 12 11 11 10 9 8 9 9 8 7 7 6 6 7 8 8 8 9 9 10 11 13 14 15 16 18 19 20
27 26 25 24 25 26 26 25 24 23 22 22 20 19 16 15 15 14 13 13 12 11 11 10 8 8 7 7 8 8 8 9 9 9 10 10 11 13 14 15 16 17 19 20
31 29 26 26 26 27 28 28 27 27 26 25 24 22 20 18 18 17 16 16 15 14 14 12 10 10 10 10 10 9 9 9 9 10 11 11 12 13 14 15 16 17 18 19
34 32 30 29 28 28 30 29 29 29 28 27 26 24 22 20 19 19 19 18 17 17 16 15 14 13 12 11 11 11 11 11 11 11 12 12 12 12 13 14 16 17 18 19
37 36 35 34 33 34 31 30 30 30 30 30 29 27 25 23 22 22 21 20 19 18 18 18 18 17 16 15 14 14 14 13 13 13 13 13 13 13 14 14 14 15 18 20
40 39 39 38 37 36 34 32 31 31 31 29 29 27 25 24 24 24 24 22 20 19 20 21 21 20 19 18 17 17 16 16 15 14 14 14 14 14 14 15 15 16 17 18
39 40 40 40 39 39 35 33 33 32 32 29 27 27 26 25 25 25 25 24 22 22 22 21 21 20 20 20 19 19 19 18 18 16 16 16 16 16 15 16 17 18 18 18
36 38 39 39 39 38 36 35 34 33 30 28 27 27 26 26 26 26 26 26 24 24 23 22 21 22 22 22 21 20 21 20 19 19 19 19 18 18 18 18 18 19 19 19
35 36 37 37 37 37 35 34 32 31 30 29 27 27 26 26 26 26 26 26 26 25 24 24 23 24 24 23 22 22 22 21 22 21 21 21 21 20 20 20 21 21 20 20
33 34 35 35 35 34 33 33 32 31 30 29 28 27 26 25 25 25 26 26 26 27 26 25 24 24 24 23 23 23 23 23 23 23 23 22 22 22 22 22 21 21 22 23
30 30 31 32 32 31 30 30 30 29 29 28 28 27 27 26 25 25 25 25 25 26 26 25 25 25 25 24 24 23 23 24 24 24 23 23 22 22 23 23 23 24 25 25
30 29 29 29 29 28 28 28 28 28 28 28 27 27 26 25 26 25 25 25 25 26 26 25 25 24 24 24 24 24 24 24 23 23 23 22 22 22 23 24 25 26 26 26
29 29 28 28 28 28 27 27 27 27 26 26 25 25 25 24 24 25 25 24 25 25 25 25 25 25 25 25 24 24 23 23 23 24 23 23 23 24 25 26 27 27 27 27
Wind_Direction
262 262 263 262 264 268 271 269 264 263 270 277 283 288 294 300 307 315 318 323 327 329 329 329 328 327 314 302 275 217 206 203 197 199 199 201 202 205 206 207 208 211 211 212
259 259 258 261 264 268 270 267 265 265 271 278 283 285 290 298 306 310 315 320 323 326 325 326 329 329 325 305 266 215 200 200 198 199 199 198 199 203 204 206 208 208 210 211
254 254 257 260 264 266 266 265 263 265 270 279 285 286 289 297 304 309 315 317 317 321 322 324 329 331 324 291 243 203 195 197 197 198 198 197 197 202 206 208 207 208 211 214
250 253 256 257 261 263 261 262 263 267 272 277 286 289 292 296 303 311 315 315 313 314 316 325 332 334 327 281 236 209 198 188 192 195 198 194 198 207 208 209 208 207 211 213
247 248 252 254 256 258 258 260 265 270 274 279 284 291 299 299 303 310 313 314 311 308 312 321 330 330 319 254 235 200 190 191 193 196 200 200 203 206 208 209 210 211 211 210
244 246 248 250 251 253 254 258 264 269 273 277 285 290 297 299 304 309 313 314 304 305 311 316 323 322 308 262 201 182 189 194 196 194 196 202 205 207 209 211 211 212 213 212
243 244 245 246 248 250 253 258 263 267 271 277 280 284 293 294 304 307 310 315 304 299 306 313 309 311 309 255 170 169 186 197 200 202 201 202 208 211 212 212 212 213 216 217
240 241 243 242 243 246 250 254 259 264 269 271 273 278 285 290 306 312 313 314 308 306 310 316 310 294 286 248 213 198 197 207 210 211 211 213 217 215 214 214 216 218 220 222
235 236 236 236 235 238 243 248 253 258 264 267 271 276 275 282 292 303 312 310 311 310 312 317 317 290 270 260 243 242 230 229 227 225 223 223 221 221 222 220 222 224 225 227
227 227 228 230 232 236 239 241 245 254 260 266 270 273 274 277 285 291 297 308 311 308 307 304 302 283 266 259 253 255 253 247 247 239 231 230 229 229 227 227 227 228 230 232
226 224 222 224 228 232 237 240 246 251 257 263 267 270 271 275 284 286 288 297 309 301 299 298 291 283 287 272 261 264 267 262 259 253 240 238 236 232 230 231 229 230 232 232
227 226 221 221 224 229 234 239 244 249 256 262 266 267 269 272 280 285 288 297 300 304 306 305 296 289 282 273 256 263 271 265 264 263 254 247 244 238 237 235 232 233 234 236
228 227 222 221 224 229 234 239 243 249 255 260 264 267 270 273 276 280 284 294 297 298 297 299 298 293 290 281 265 267 272 270 265 264 258 251 247 242 240 239 238 239 240 241
232 231 230 230 231 234 238 242 245 249 254 260 264 267 269 274 277 280 281 282 282 292 295 294 292 290 289 289 282 279 274 273 271 265 257 253 249 245 244 244 244 244 243 243
236 236 234 233 232 234 238 242 247 252 256 262 266 267 270 271 276 279 284 281 280 284 288 293 292 286 279 278 276 278 278 272 271 268 260 260 255 251 250 248 250 250 249 248
239 240 239 237 236 238 241 244 249 253 258 262 266 268 269 271 271 275 279 279 277 279 280 282 285 288 279 275 273 275 277 274 271 269 266 263 260 256 251 247 250 251 249 250
239 241 243 244 242 243 245 248 252 256 259 263 266 269 268 267 267 270 273 275 276 277 277 276 278 281 280 276 276 275 275 275 273 271 271 268 264 260 257 256 258 256 254 253
238 241 244 246 247 248 250 251 254 258 261 263 265 266 265 265 264 266 269 269 268 272 274 274 277 274 271 273 275 275 273 274 273 274 273 268 264 263 261 261 261 263 262 260
239 242 244 246 248 251 253 254 257 260 262 263 265 266 265 265 263 263 263 264 265 267 271 273 273 269 269 271 271 270 269 270 270 273 273 270 269 268 266 265 264 266 269 268
238 240 243 246 248 251 253 256 258 262 264 265 267 265 263 263 262 263 261 264 265 265 269 271 269 266 266 267 268 267 270 269 267 269 271 270 272 274 270 268 267 268 270 270
237 239 242 244 247 251 254 257 259 260 264 265 264 263 261 261 260 261 261 262 263 265 266 268 266 266 268 267 266 271 268 269 266 265 268 270 271 271 270 270 270 272 273 272
237 238 241 243 245 248 252 255 257 260 261 263 262 262 262 261 260 260 261 262 261 263 264 264 263 266 268 266 264 268 266 266 265 265 268 269 269 270 269 269 271 273 274 277
238 239 241 244 246 248 251 253 255 257 259 259 259 259 260 261 260 259 259 260 260 260 261 261 262 264 266 265 263 264 264 263 264 264 265 268 269 266 266 269 271 273 274 277
237 238 240 242 244 245 248 251 252 253 255 257 258 257 258 257 258 257 257 258 258 257 258 260 262 265 265 264 265 265 262 262 261 263 264 267 268 266 265 268 270 272 274 276
236 236 237 240 242 245 248 250 250 250 252 254 255 255 255 255 256 255 254 254 257 257 257 258 261 263 263 263 264 264 262 261 263 263 263 266 267 269 269 269 269 271 274 275
235 235 238 241 243 245 246 248 249 250 251 253 253 251 253 254 253 254 253 254 255 256 256 257 260 261 261 262 262 261 261 261 263 262 261 264 265 268 270 272 273 273 274 276
Height
5858 5860 5860 5860 5860 5860 5861 5861 5862 5862 5861 5861 5861 5861 5861 5860 5858 5857 5855 5852 5850 5847 5844 5841 5837 5836 5834 5833 5834 5834 5835 5836 5838 5840 5842 5845 5848 5850 5853 5856 5858 5861 5864 5866
5855 5856 5855 5855 5856 5857 5858 5859 5859 5859 5858 5858 5858 5858 5858 5857 5856 5854 5852 5850 5848 5845 5842 5839 5837 5834 5833 5833 5833 5833 5834 5836 5838 5839 5841 5843 5846 5849 5851 5854 5857 5859 5862 5865
5849 5851 5851 5852 5853 5854 5855 5856 5856 5856 5855 5855 5855 5856 5855 5854 5853 5852 5850 5847 5845 5843 5841 5838 5835 5833 5833 5833 5832 5833 5834 5835 5837 5838 5840 5843 5846 5848 5850 5853 5855 5858 5860 5863
5844 5846 5847 5848 5849 5850 5851 5852 5852 5852 5852 5852 5852 5852 5853 5851 5850 5849 5848 5845 5843 5841 5839 5837 5835 5833 5832 5833 5833 5833 5834 5835 5836 5838 5840 5842 5845 5847 5849 5851 5854 5856 5859 5861
5839 5841 5842 5844 5846 5846 5848 5847 5848 5849 5849 5849 5849 5849 5850 5849 5848 5847 5845 5843 5841 5839 5838 5837 5835 5833 5833 5833 5833 5833 5834 5835 5836 5837 5839 5842 5844 5846 5848 5851 5853 5855 5857 5859
5834 5835 5838 5840 5841 5842 5844 5844 5845 5846 5846 5847 5847 5847 5847 5846 5846 5845 5843 5841 5840 5839 5838 5837 5835 5834 5834 5833 5833 5834 5834 5835 5836 5837 5839 5840 5842 5844 5847 5849 5851 5854 5856 5858
5829 5831 5833 5835 5836 5838 5840 5842 5842 5843 5843 5844 5844 5844 5846 5844 5844 5843 5841 5840 5839 5838 5837 5837 5836 5835 5834 5833 5833 5834 5834 5835 5836 5837 5838 5840 5842 5843 5846 5848 5850 5852 5854 5857
5823 5826 5829 5831 5833 5834 5836 5838 5839 5840 5841 5841 5841 5841 5843 5842 5842 5841 5840 5839 5838 5837 5837 5836 5836 5835 5835 5834 5834 5834 5834 5835 5835 5836 5837 5839 5840 5842 5844 5846 5848 5850 5853 5855
5818 5821 5824 5826 5828 5830 5831 5833 5836 5837 5837 5838 5838 5840 5840 5840 5840 5839 5839 5838 5837 5837 5837 5836 5835 5835 5834 5834 5834 5834 5834 5834 5834 5835 5836 5838 5839 5840 5842 5844 5846 5848 5850 5852
5813 5816 5819 5821 5823 5825 5828 5830 5831 5833 5834 5835 5836 5837 5838 5838 5838 5838 5837 5837 5837 5836 5836 5836 5835 5834 5834 5833 5833 5833 5833 5833 5833 5834 5835 5836 5837 5838 5840 5842 5843 5845 5847 5849
5808 5812 5814 5817 5819 5821 5824 5826 5827 5829 5831 5832 5833 5837 5836 5836 5836 5836 5836 5836 5836 5836 5836 5835 5835 5834 5833 5832 5832 5832 5832 5832 5832 5832 5833 5833 5834 5835 5837 5839 5840 5842 5844 5846
5805 5807 5810 5812 5815 5817 5820 5822 5824 5826 5828 5829 5830 5835 5833 5833 5834 5834 5834 5834 5834 5834 5834 5834 5833 5832 5831 5830 5830 5830 5830 5830 5830 5830 5830 5831 5831 5832 5834 5836 5837 5839 5841 5843
5800 5803 5806 5808 5812 5814 5815 5818 5820 5823 5824 5825 5827 5832 5830 5831 5831 5832 5832 5832 5833 5833 5833 5832 5831 5830 5830 5829 5829 5828 5828 5828 5828 5828 5828 5828 5829 5830 5831 5833 5834 5836 5837 5839
5796 5799 5802 5805 5808 5810 5812 5814 5816 5819 5820 5822 5824 5826 5827 5828 5828 5829 5830 5830 5830 5831 5831 5830 5829 5828 5828 5827 5827 5826 5826 5826 5826 5826 5826 5826 5826 5827 5828 5829 5830 5832 5833 5835
5791 5794 5797 5800 5803 5805 5807 5810 5812 5814 5816 5818 5820 5821 5823 5824 5825 5826 5826 5827 5827 5827 5828 5827 5827 5826 5825 5825 5825 5824 5824 5824 5824 5824 5824 5823 5824 5824 5825 5826 5826 5827 5828 5830
5784 5788 5791 5795 5797 5800 5802 5804 5806 5809 5811 5813 5815 5817 5819 5820 5820 5821 5822 5823 5823 5824 5824 5824 5824 5823 5823 5822 5822 5822 5821 5821 5822 5822 5821 5821 5821 5821 5821 5822 5822 5823 5824 5825
5778 5781 5785 5788 5791 5794 5796 5799 5801 5803 5805 5807 5809 5812 5813 5814 5815 5816 5817 5818 5819 5819 5820 5820 5820 5820 5820 5820 5819 5819 5819 5819 5819 5819 5818 5818 5818 5818 5818 5818 5818 5819 5820 5821
5771 5774 5778 5781 5785 5786 5791 5793 5795 5796 5798 5801 5803 5805 5807 5808 5810 5811 5812 5813 5814 5815 5815 5815 5816 5816 5816 5816 5816 5816 5816 5816 5816 5815 5815 5814 5814 5814 5814 5814 5815 5815 5815 5816
5763 5767 5770 5773 5776 5779 5783 5786 5788 5790 5791 5794 5796 5797 5799 5801 5803 5805 5805 5807 5808 5809 5810 5810 5810 5811 5811 5811 5811 5811 5812 5812 5812 5811 5811 5811 5811 5811 5811 5811 5811 5811 5811 5811
5754 5758 5762 5765 5768 5771 5777 5779 5780 5783 5784 5787 5788 5790 5792 5794 5796 5798 5799 5800 5802 5803 5803 5804 5805 5805 5806 5806 5806 5806 5807 5807 5806 5806 5807 5807 5807 5807 5807 5807 5807 5807 5807 5807
5746 5750 5753 5757 5760 5763 5768 5770 5773 5777 5779 5780 5781 5782 5784 5786 5789 5791 5792 5793 5795 5796 5797 5798 5799 5800 5800 5800 5801 5801 5801 5801 5801 5802 5802 5802 5802 5802 5802 5802 5802 5802 5802 5801
5738 5742 5745 5749 5753 5758 5760 5762 5766 5768 5770 5772 5773 5775 5777 5778 5780 5782 5784 5785 5787 5789 5790 5791 5792 5793 5793 5794 5794 5794 5795 5795 5796 5796 5796 5796 5796 5796 5796 5796 5796 5795 5795 5795
5730 5735 5738 5743 5747 5749 5752 5755 5757 5760 5762 5764 5765 5767 5769 5771 5773 5775 5776 5778 5779 5781 5782 5784 5785 5786 5787 5787 5787 5788 5788 5788 5789 5789 5789 5789 5789 5789 5789 5790 5790 5789 5789 5789
5723 5727 5731 5735 5738 5741 5744 5747 5749 5752 5754 5756 5758 5760 5762 5763 5765 5767 5769 5770 5771 5773 5774 5776 5778 5779 5779 5780 5780 5780 5781 5781 5782 5782 5783 5783 5782 5782 5783 5783 5783 5783 5783 5782
5716 5720 5723 5727 5730 5734 5737 5739 5742 5744 5747 5749 5750 5752 5753 5755 5757 5759 5760 5762 5764 5765 5767 5768 5770 5771 5771 5772 5773 5773 5774 5774 5775 5775 5776 5776 5776 5776 5776 5776 5776 5775 5775 5774
5710 5714 5717 5721 5724 5727 5730 5732 5735 5737 5739 5741 5743 5744 5746 5748 5749 5751 5752 5754 5756 5757 5759 5761 5762 5763 5764 5765 5766 5766 5766 5767 5768 5768 5769 5769 5770 5769 5769 5769 5768 5767 5767 5766